TimeMDT,TemperatureF,Dew PointF,Humidity,Sea Level PressureIn,VisibilityMPH,Wind Direction,Wind SpeedMPH,Gust SpeedMPH,PrecipitationIn,Events,Conditions,WindDirDegrees,DateUTC
12:16 AM,32.0,28.4,87,30.07,10.0,NW,11.5,-,N/A,,Clear,310,2013-05-21 06:16:00
12:36 AM,32.0,28.4,87,30.07,10.0,NW,11.5,-,N/A,,Scattered Clouds,310,2013-05-21 06:36:00
12:56 AM,32.0,28.4,87,30.07,10.0,NW,13.8,17.3,N/A,,Scattered Clouds,310,2013-05-21 06:56:00
1:16 AM,32.0,28.4,87,30.07,10.0,NW,10.4,-,N/A,,Scattered Clouds,310,2013-05-21 07:16:00
1:36 AM,32.0,28.4,87,30.07,10.0,NW,9.2,-,N/A,,Overcast,310,2013-05-21 07:36:00
1:56 AM,32.0,28.4,87,30.07,10.0,WNW,8.1,-,N/A,,Overcast,300,2013-05-21 07:56:00
2:16 AM,32.0,26.6,80,30.06,10.0,NW,6.9,-,N/A,,Scattered Clouds,310,2013-05-21 08:16:00
2:36 AM,32.0,26.6,80,30.06,10.0,West,4.6,-,N/A,,Scattered Clouds,280,2013-05-21 08:36:00
2:56 AM,32.0,26.6,80,30.05,10.0,WSW,9.2,-,N/A,,Scattered Clouds,250,2013-05-21 08:56:00
3:16 AM,30.2,28.4,93,30.05,10.0,West,6.9,-,N/A,,Mostly Cloudy,270,2013-05-21 09:16:00
3:36 AM,32.0,28.4,87,30.05,10.0,West,6.9,-,N/A,,Overcast,270,2013-05-21 09:36:00
3:56 AM,32.0,28.4,87,30.05,10.0,West,6.9,-,N/A,,Overcast,270,2013-05-21 09:56:00
4:16 AM,32.0,26.6,80,30.05,10.0,West,5.8,-,N/A,,Overcast,270,2013-05-21 10:16:00
4:36 AM,30.2,26.6,86,30.05,10.0,WSW,3.5,-,N/A,,Overcast,250,2013-05-21 10:36:00
4:56 AM,30.2,28.4,93,30.04,10.0,WSW,4.6,-,N/A,,Overcast,240,2013-05-21 10:56:00
5:16 AM,30.2,28.4,93,30.05,10.0,West,6.9,-,N/A,,Overcast,270,2013-05-21 11:16:00
5:36 AM,30.2,28.4,93,30.05,10.0,WNW,6.9,-,N/A,,Overcast,290,2013-05-21 11:36:00
5:56 AM,30.2,28.4,93,30.05,4.0,West,5.8,-,N/A,Snow,Light Snow,270,2013-05-21 11:56:00
6:16 AM,30.2,28.4,93,30.05,1.2,WSW,6.9,-,N/A,Snow,Light Snow,240,2013-05-21 12:16:00
6:36 AM,30.2,28.4,93,30.06,5.0,WSW,9.2,-,N/A,Snow,Light Snow,250,2013-05-21 12:36:00
6:56 AM,30.2,28.4,93,30.06,0.2,SW,9.2,-,N/A,Snow,Light Snow,220,2013-05-21 12:56:00
7:16 AM,30.2,28.4,93,30.06,0.2,SW,8.1,-,N/A,Snow,Light Snow,230,2013-05-21 13:16:00
7:36 AM,30.2,28.4,93,30.06,0.2,WSW,6.9,-,N/A,Snow,Light Snow,240,2013-05-21 13:36:00
7:56 AM,30.2,28.4,93,30.06,0.2,WSW,9.2,-,N/A,Snow,Light Snow,240,2013-05-21 13:56:00
8:16 AM,30.2,28.4,93,30.06,0.2,WSW,6.9,-,N/A,Fog,Light Freezing Fog,240,2013-05-21 14:16:00
8:36 AM,30.2,28.4,93,30.07,1.5,SW,5.8,-,N/A,,Overcast,230,2013-05-21 14:36:00
8:56 AM,30.2,21.2,69,30.07,10.0,SSW,4.6,-,N/A,,Overcast,200,2013-05-21 14:56:00
9:16 AM,32.0,23.0,69,30.07,10.0,South,5.8,-,N/A,,Overcast,190,2013-05-21 15:16:00
9:36 AM,32.0,24.8,75,30.07,10.0,Calm,Calm,-,N/A,,Overcast,0,2013-05-21 15:36:00
9:56 AM,32.0,23.0,69,30.07,10.0,West,5.8,-,N/A,,Overcast,270,2013-05-21 15:56:00
10:16 AM,32.0,23.0,69,30.07,10.0,WSW,4.6,-,N/A,,Overcast,250,2013-05-21 16:16:00
10:36 AM,32.0,23.0,69,30.07,10.0,West,4.6,-,N/A,,Overcast,260,2013-05-21 16:36:00
10:56 AM,32.0,23.0,69,30.07,10.0,West,3.5,-,N/A,,Overcast,280,2013-05-21 16:56:00
11:16 AM,33.8,23.0,65,30.07,10.0,WSW,4.6,-,N/A,,Overcast,250,2013-05-21 17:16:00
11:36 AM,35.6,23.0,60,30.06,10.0,WSW,4.6,-,N/A,,Mostly Cloudy,250,2013-05-21 17:36:00
11:56 AM,35.6,23.0,60,30.06,10.0,West,3.5,-,N/A,,Mostly Cloudy,260,2013-05-21 17:56:00
12:17 PM,35.6,26.6,70,30.05,10.0,WNW,6.9,-,N/A,,Mostly Cloudy,290,2013-05-21 18:17:00
12:36 PM,37.4,28.4,70,30.05,10.0,West,10.4,-,N/A,,Scattered Clouds,260,2013-05-21 18:36:00
12:56 PM,37.4,26.6,65,30.05,10.0,WNW,10.4,-,N/A,,Scattered Clouds,300,2013-05-21 18:56:00
1:16 PM,37.4,28.4,70,30.05,10.0,WNW,6.9,-,N/A,,Mostly Cloudy,300,2013-05-21 19:16:00
1:36 PM,37.4,24.8,60,30.05,10.0,WNW,12.7,-,N/A,,Scattered Clouds,290,2013-05-21 19:36:00
1:57 PM,37.4,24.8,60,30.05,10.0,West,10.4,16.1,N/A,,Clear,280,2013-05-21 19:57:00
2:16 PM,41.0,26.6,57,30.05,10.0,WSW,6.9,-,N/A,,Mostly Cloudy,250,2013-05-21 20:16:00
2:36 PM,41.0,26.6,57,30.04,10.0,WNW,11.5,16.1,N/A,,Overcast,290,2013-05-21 20:36:00
2:56 PM,39.2,28.4,65,30.04,10.0,West,12.7,17.3,N/A,,Mostly Cloudy,280,2013-05-21 20:56:00
3:16 PM,41.0,24.8,53,30.04,10.0,West,11.5,21.9,N/A,,Scattered Clouds,270,2013-05-21 21:16:00
3:37 PM,41.0,23.0,49,30.03,10.0,West,12.7,24.2,N/A,,Clear,280,2013-05-21 21:37:00
3:56 PM,42.8,24.8,49,30.03,10.0,WNW,10.4,21.9,N/A,,Scattered Clouds,300,2013-05-21 21:56:00
4:16 PM,41.0,23.0,49,30.02,10.0,West,17.3,26.5,N/A,,Scattered Clouds,280,2013-05-21 22:16:00
4:36 PM,41.0,26.6,57,30.03,10.0,West,12.7,19.6,N/A,,Mostly Cloudy,280,2013-05-21 22:36:00
4:56 PM,42.8,24.8,49,30.01,10.0,West,18.4,25.3,N/A,,Scattered Clouds,270,2013-05-21 22:56:00
5:17 PM,42.8,26.6,53,30.02,10.0,West,15.0,24.2,N/A,,Scattered Clouds,270,2013-05-21 23:17:00
5:36 PM,42.8,24.8,49,30.01,10.0,WNW,12.7,26.5,N/A,,Scattered Clouds,290,2013-05-21 23:36:00
5:56 PM,42.8,24.8,49,30.01,10.0,West,12.7,21.9,N/A,,Scattered Clouds,270,2013-05-21 23:56:00
6:16 PM,42.8,24.8,49,30.01,10.0,West,13.8,23.0,N/A,,Scattered Clouds,280,2013-05-22 00:16:00
6:36 PM,44.6,23.0,43,30.00,10.0,West,15.0,23.0,N/A,,Clear,280,2013-05-22 00:36:00
6:56 PM,44.6,23.0,43,30.00,10.0,West,18.4,24.2,N/A,,Clear,280,2013-05-22 00:56:00
7:16 PM,44.6,23.0,43,30.01,10.0,West,13.8,18.4,N/A,,Mostly Cloudy,280,2013-05-22 01:16:00
7:36 PM,44.6,23.0,43,30.01,10.0,West,12.7,18.4,N/A,,Overcast,280,2013-05-22 01:36:00
7:56 PM,42.8,24.8,49,30.01,10.0,West,9.2,16.1,N/A,,Mostly Cloudy,280,2013-05-22 01:56:00
8:16 PM,42.8,26.6,53,30.02,10.0,West,9.2,-,N/A,,Scattered Clouds,270,2013-05-22 02:16:00
8:36 PM,41.0,26.6,57,30.02,10.0,West,8.1,-,N/A,,Clear,280,2013-05-22 02:36:00
8:56 PM,41.0,24.8,53,30.02,10.0,West,8.1,-,N/A,,Clear,280,2013-05-22 02:56:00
9:16 PM,41.0,24.8,53,30.02,10.0,West,9.2,-,N/A,,Clear,270,2013-05-22 03:16:00
9:36 PM,42.8,23.0,46,30.02,10.0,West,8.1,-,N/A,,Clear,260,2013-05-22 03:36:00
9:56 PM,42.8,21.2,42,30.02,10.0,WSW,8.1,-,N/A,,Clear,250,2013-05-22 03:56:00
10:16 PM,42.8,21.2,42,30.03,10.0,WSW,8.1,-,N/A,,Clear,240,2013-05-22 04:16:00
10:36 PM,42.8,21.2,42,30.03,10.0,SW,8.1,-,N/A,,Clear,230,2013-05-22 04:36:00
10:56 PM,42.8,23.0,46,30.03,10.0,SSW,9.2,-,N/A,,Clear,210,2013-05-22 04:56:00
11:16 PM,42.8,21.2,42,30.02,10.0,SSW,9.2,-,N/A,,Clear,210,2013-05-22 05:16:00
11:36 PM,42.8,21.2,42,30.01,10.0,South,9.2,-,N/A,,Scattered Clouds,190,2013-05-22 05:36:00
11:56 PM,42.8,21.2,42,30.01,10.0,South,8.1,-,N/A,,Scattered Clouds,180,2013-05-22 05:56:00